EHI
8 7 6 7 8 8 11 15 18 19 19 17 15 14 14 13 12 10 9 10 10 10 9 8 6 6 7 7 4 4 4 4 3 3 3 3 4 4 4 3 2 2 2
11 11 10 8 9 10 13 17 20 21 20 18 17 15 15 14 12 10 10 10 10 10 10 9 8 8 10 9 6 5 5 4 4 4 4 4 4 4 4 3 2 1 1
14 16 15 12 11 12 14 17 22 23 21 20 19 18 18 16 13 11 10 10 11 11 12 12 11 11 12 12 11 10 8 7 6 7 8 7 6 5 4 3 2 0 0
15 17 17 14 13 13 14 18 22 24 23 22 22 22 22 18 14 11 9 9 12 13 14 14 14 13 13 15 15 14 12 11 10 11 12 11 10 9 5 3 2 1 1
15 17 17 16 15 15 16 18 22 25 26 25 25 25 24 21 16 10 7 7 10 12 13 14 14 13 13 14 15 16 15 14 13 14 15 15 15 12 8 3 2 3 3
16 18 19 19 19 18 17 18 22 26 28 28 28 27 25 23 18 11 7 7 8 9 10 11 12 13 12 13 15 16 15 15 16 17 18 18 16 13 9 5 4 3 3
19 21 22 21 21 21 19 20 24 27 28 29 29 29 26 22 18 13 9 7 7 8 10 10 11 12 12 14 15 15 15 15 16 18 19 17 15 12 10 7 5 3 2
22 25 25 23 23 23 22 23 27 29 28 28 29 29 26 21 16 13 11 9 9 10 12 12 12 12 14 16 17 16 15 15 15 15 16 14 12 11 10 8 6 4 2
23 26 27 25 25 25 25 26 30 32 31 28 28 30 27 22 17 15 13 11 12 13 13 13 12 13 17 19 19 17 16 15 14 13 13 12 10 9 9 9 7 5 4
24 26 28 28 27 27 27 29 32 34 34 30 28 28 26 22 19 17 14 13 14 14 13 11 11 14 18 20 19 17 15 15 14 13 12 12 10 9 8 8 7 6 5
25 28 30 30 29 29 29 31 33 33 33 30 27 25 23 20 17 15 14 13 13 11 10 9 11 13 15 17 18 17 15 14 13 13 13 13 12 10 9 8 7 6 6
25 27 31 33 32 31 31 33 33 32 30 29 29 26 21 15 13 11 11 11 10 7 7 9 10 11 12 14 17 17 15 13 12 14 16 15 14 12 10 8 5 4 5
22 24 29 33 33 31 31 33 33 30 29 30 30 28 21 14 10 10 10 10 7 5 5 8 11 12 12 13 14 16 15 13 14 17 18 17 15 13 10 7 5 3 3
18 21 28 32 33 31 30 31 29 26 27 30 30 28 24 18 13 12 12 10 7 5 4 7 11 13 13 12 13 14 14 14 16 18 18 16 14 12 9 7 6 4 3
17 20 26 32 33 31 29 27 24 21 23 27 28 26 24 20 16 15 14 12 10 8 7 9 10 11 11 11 11 12 14 16 17 18 16 13 11 9 7 5 5 5 5
17 19 24 30 31 28 26 25 23 22 23 25 25 24 22 20 16 15 15 14 13 12 12 12 11 10 10 9 8 9 13 17 19 19 16 12 9 6 4 3 2 3 5
18 19 21 24 24 22 21 21 23 24 25 25 24 23 22 20 17 15 16 16 15 14 14 14 12 11 10 7 5 6 11 15 18 18 16 13 9 7 6 5 4 4 5
17 18 17 15 17 19 18 18 19 22 25 24 23 23 22 22 20 19 19 18 16 17 18 17 15 12 9 6 4 4 8 11 14 15 15 13 11 9 9 9 9 9 8
17 17 13 11 13 17 19 18 18 21 23 23 22 22 22 23 23 22 20 18 18 20 22 21 18 13 9 6 2 2 6 8 10 12 12 11 10 8 7 10 12 12 11
16 16 13 11 12 15 18 19 20 21 21 21 21 21 21 23 23 21 19 18 19 21 22 20 17 13 9 5 1 1 4 8 9 9 9 8 7 5 4 7 9 10 9
14 14 12 11 12 14 16 17 18 19 18 17 19 20 20 21 20 19 19 19 19 20 19 16 14 11 7 3 1 1 3 6 8 8 7 6 4 2 1 3 5 5 4
11 11 10 9 12 15 16 15 15 15 14 15 17 18 18 18 17 17 18 19 18 17 15 14 11 9 6 4 1 0 1 3 6 8 7 4 2 1 0 0 1 1 1
12 11 10 10 13 15 14 14 14 14 13 15 17 18 17 17 18 18 18 18 16 12 11 11 9 8 7 6 3 0 0 1 4 6 4 2 1 0 0 0 0 0 1
12 11 10 11 13 14 13 13 14 14 13 14 16 16 14 15 17 17 16 15 11 8 8 8 7 7 8 7 4 2 1 1 2 2 1 0 0 0 0 1 1 1 1
13 11 9 8 9 10 11 11 13 13 13 14 14 12 10 10 12 12 10 9 7 5 5 4 4 5 5 4 4 4 3 2 1 1 1 1 2 1 1 2 3 2 2
13 11 8 5 4 6 8 10 12 12 12 13 13 10 7 7 8 8 6 4 3 2 2 1 1 2 2 2 2 2 2 1 1 1 2 2 3 2 1 2 4 3 3
Wind_Speed
9 9 9 8 8 8 7 7 6 5 4 3 3 3 2 2 1 1 1 1 1 0 1 1 0 1 1 2 2 2 2 1 1 2 2 2 2 2 2 2 2 2 2
8 9 9 9 9 9 8 8 7 6 6 4 3 2 2 2 1 1 1 1 1 1 1 1 2 1 1 1 2 2 3 1 0 2 2 2 3 3 2 2 3 2 2
8 9 9 9 9 9 9 7 7 7 6 5 4 3 3 3 2 2 1 1 1 1 2 2 2 2 2 1 2 2 2 2 0 1 2 2 2 1 2 2 2 2 2
8 8 9 9 9 9 8 8 8 7 7 6 5 5 3 3 2 2 1 1 1 1 2 2 2 3 2 1 3 1 2 3 2 1 1 2 3 3 2 2 2 3 3
8 8 8 8 8 8 8 8 8 7 7 6 6 6 4 3 2 2 1 2 1 2 2 2 2 2 2 2 3 2 3 2 2 2 1 1 2 3 3 3 3 3 3
7 7 7 7 7 7 7 8 9 8 8 7 6 6 4 3 2 2 1 2 2 2 2 2 2 3 2 2 2 3 3 2 3 2 2 2 2 2 3 4 4 3 2
7 7 8 8 8 8 8 8 8 8 8 8 7 6 6 5 4 4 3 3 2 2 1 2 2 3 2 3 3 3 3 3 3 3 3 3 3 3 3 4 4 4 3
6 7 8 8 8 8 8 8 8 8 8 8 7 6 6 5 4 4 4 3 2 2 2 2 3 3 3 3 2 3 3 2 3 3 3 3 3 3 4 4 4 5 4
5 6 7 7 8 8 8 7 7 7 8 8 7 6 6 5 4 4 4 3 2 2 2 3 3 3 3 4 4 3 3 3 4 3 3 4 3 3 3 3 4 5 5
4 5 6 6 6 7 7 7 6 6 7 7 7 5 6 5 5 4 3 3 3 3 3 4 3 3 3 4 4 4 2 3 3 3 3 4 4 3 3 3 4 4 5
3 4 4 5 6 6 6 6 6 6 6 6 6 5 5 4 4 4 4 4 4 3 4 4 4 4 4 3 3 4 3 4 4 4 3 4 4 4 4 3 4 4 4
2 4 5 5 5 5 5 6 6 6 6 6 6 5 5 4 4 4 3 3 4 4 5 5 4 4 4 4 4 4 4 4 4 4 4 5 4 4 4 4 4 4 4
2 4 4 4 4 4 4 4 4 5 5 5 6 5 5 5 4 3 3 4 4 5 5 5 5 4 4 4 4 4 4 4 4 4 4 4 4 4 4 5 4 4 5
2 3 3 3 3 3 3 3 3 3 4 4 5 5 5 4 4 3 4 4 4 5 5 5 5 5 5 4 4 4 4 4 4 4 4 4 4 4 5 5 4 5 5
2 2 3 3 3 3 3 3 3 3 4 4 4 4 4 3 3 4 4 5 5 5 5 5 5 5 5 4 3 4 5 5 5 4 4 4 4 4 5 5 4 4 5
2 2 3 3 3 3 3 3 3 3 4 4 4 3 3 4 3 4 4 5 5 5 4 4 4 5 4 1 3 5 5 5 5 5 5 5 5 5 6 6 6 7 7
2 2 2 2 2 3 2 3 2 2 3 3 3 4 4 4 4 4 4 4 4 4 5 4 4 5 3 3 4 5 6 5 5 5 5 4 3 4 4 6 8 8 9
1 1 2 2 2 3 3 3 3 3 3 3 3 3 3 3 3 4 4 4 3 4 4 4 4 4 3 3 4 5 6 5 5 5 5 5 4 4 5 6 6 6 5
1 1 1 1 1 2 3 3 3 3 3 3 3 4 4 3 4 4 4 4 3 4 4 4 4 4 3 3 4 6 5 5 6 5 5 5 5 3 5 7 6 6 6
1 0 0 0 1 2 2 3 3 3 3 3 3 3 4 4 5 5 5 4 4 4 4 4 4 4 4 3 4 6 5 5 5 4 4 4 5 4 5 7 6 6 6
1 0 0 0 1 1 2 2 2 2 2 3 3 4 4 5 5 4 4 4 4 4 4 4 4 4 4 3 4 4 5 5 5 4 4 2 3 5 6 8 6 6 7
1 0 0 0 1 1 2 2 2 1 2 3 3 3 4 5 3 4 4 4 5 5 5 4 4 3 3 3 3 4 5 7 6 5 4 2 2 5 7 6 5 7 8
1 0 0 1 1 1 2 2 1 1 2 3 3 3 4 4 4 4 4 4 5 5 4 4 4 3 2 2 4 6 6 7 6 5 4 5 5 7 7 8 8 8 6
0 1 1 1 1 0 1 1 1 1 2 3 3 3 3 4 3 3 3 3 4 4 4 4 4 3 3 2 1 2 4 5 6 5 4 7 8 8 6 5 6 6 5
1 1 1 0 0 1 1 2 2 2 3 3 3 3 4 3 3 3 3 3 2 3 5 5 4 4 3 2 2 4 4 4 4 5 5 4 4 4 4 4 3 4 4
1 1 1 1 1 1 2 2 2 2 3 3 3 3 3 2 3 2 2 1 2 2 3 3 5 3 2 2 2 3 4 5 5 6 5 4 4 4 4 4 4 3 3
Wind_Direction
182 184 186 185 181 180 182 183 182 173 182 183 192 184 182 194 179 178 140 234 284 304 286 314 339 295 327 320 308 293 262 257 267 259 248 226 215 211 211 230 243 216 230
182 185 189 189 188 185 186 186 187 182 189 178 189 196 200 199 169 191 133 243 273 282 244 292 293 315 289 274 292 294 297 304 306 296 271 239 200 203 211 217 225 240 232
191 187 191 193 192 190 190 189 188 186 190 187 187 185 188 209 192 194 176 198 255 274 312 306 302 303 280 274 276 279 283 305 316 340 295 290 299 268 196 217 227 239 245
195 190 191 194 194 190 187 186 184 185 185 188 193 198 204 206 201 223 177 204 222 266 281 295 304 297 294 284 265 283 282 278 277 218 256 290 320 294 260 217 214 233 237
194 191 191 190 190 184 183 182 180 182 184 190 191 205 215 208 204 217 187 253 224 248 270 280 287 283 282 292 298 291 282 270 277 276 256 239 236 251 270 274 266 240 230
189 187 182 180 180 176 180 180 178 182 185 190 194 204 212 220 227 243 246 245 238 243 252 266 276 275 293 284 275 275 259 278 292 286 268 255 260 262 260 265 266 267 258
186 181 179 179 180 180 184 185 183 187 190 193 197 201 208 211 216 235 228 253 267 260 265 282 275 283 287 282 278 261 280 275 272 269 271 267 268 279 277 275 278 277 268
183 180 180 182 183 184 185 186 185 190 194 195 198 202 210 222 225 228 248 244 262 280 294 270 268 275 279 280 277 266 257 258 269 272 278 272 271 274 272 273 281 278 269
182 179 176 180 180 180 182 183 184 190 196 197 195 201 211 226 237 235 239 246 256 259 262 259 257 265 269 271 266 266 269 267 266 266 256 266 270 264 271 272 271 276 280
177 169 169 169 171 171 172 176 178 190 197 199 202 199 209 216 228 240 244 256 259 269 272 266 260 260 257 255 259 257 259 264 265 268 276 276 275 276 269 269 269 270 277
161 151 152 155 158 160 165 173 173 187 196 197 195 205 206 215 223 230 237 244 254 256 259 263 262 260 259 258 258 264 262 258 260 261 254 259 275 277 274 266 264 264 268
148 143 139 140 148 156 163 171 179 189 196 195 192 199 201 206 216 226 236 245 254 256 255 257 256 260 260 263 258 262 261 257 256 258 259 260 259 261 272 275 273 272 270
140 135 130 138 145 153 159 168 181 193 193 193 197 196 199 196 207 218 234 248 254 261 260 255 254 257 258 254 253 254 257 258 258 256 255 258 260 260 267 267 270 271 263
144 140 134 136 147 160 165 176 183 189 192 197 200 196 199 199 206 221 234 245 253 255 258 258 257 256 253 250 253 251 251 257 260 259 259 258 254 254 261 258 260 269 273
170 162 152 147 163 174 178 182 184 185 189 193 196 194 191 196 210 219 230 236 245 252 255 260 260 257 249 250 260 261 254 256 259 258 260 255 252 272 271 279 279 274 271
201 190 184 177 187 191 194 189 187 182 179 186 193 191 191 193 209 221 230 234 242 253 253 250 255 259 266 317 278 270 261 254 255 258 258 250 229 237 242 260 275 278 272
217 210 208 204 203 207 205 189 179 174 177 190 199 193 197 203 216 228 232 237 237 244 249 249 253 262 271 269 259 266 265 258 258 258 261 268 258 244 250 240 241 244 248
229 221 225 215 202 186 181 173 165 170 182 194 206 213 215 214 227 237 238 248 254 251 252 252 251 259 254 243 253 269 256 257 257 253 250 259 269 268 272 262 254 253 248
295 265 264 223 179 173 164 162 164 175 193 206 216 223 232 233 236 240 242 247 256 257 254 251 252 254 248 223 242 262 260 253 254 252 250 253 255 263 272 260 260 264 261
15 308 277 126 160 166 168 171 177 191 210 225 233 234 236 241 244 248 250 251 251 251 256 253 252 256 257 218 230 260 261 259 258 250 243 240 251 249 253 260 263 265 270
357 316 207 176 141 164 176 190 200 223 236 246 246 246 241 241 240 246 249 251 253 252 250 250 250 249 248 213 207 245 265 272 272 269 263 249 217 236 244 258 267 275 284
59 71 176 102 105 157 183 197 213 241 252 253 252 251 251 251 241 239 244 248 248 241 240 243 251 243 234 234 211 219 249 279 277 278 280 292 235 245 244 248 263 269 270
45 322 198 126 108 153 200 219 235 246 249 252 255 253 253 251 248 241 241 243 242 250 253 252 253 257 255 215 199 212 231 250 263 282 292 276 251 252 237 228 237 245 252
346 271 220 142 109 189 247 269 263 261 254 255 260 262 258 256 257 260 257 262 265 270 272 269 269 264 258 261 255 253 242 238 247 265 259 237 234 243 253 245 232 241 251
308 290 277 242 240 293 286 286 289 271 264 265 274 275 274 277 267 271 291 277 289 293 284 288 288 285 274 307 327 297 289 295 300 288 270 269 261 255 251 248 250 248 244
315 308 304 300 307 301 289 298 293 272 266 263 268 275 275 275 271 265 272 5 271 259 249 271 285 299 323 313 294 285 288 289 280 274 271 271 268 265 264 259 248 243 248